FloripaSat 1
1 44885U 19093G   25163.81985839  .00004046  00000-0  34294-3 0  9998
2 44885  97.8169 251.4275 0010126 189.5065 170.5968 14.98502845297236
RS-44
1 44909U 19096E   25163.52466193  .00000037  00000-0  11120-3 0  9992
2 44909  82.5215 225.3217 0216290 288.8029  68.9721 12.79741007255115
UPMSat 2
1 46276U 20061E   25163.23761121  .00070757  00000-0  61085-3 0  9993
2 46276  97.2438 237.7085 0002115 161.5527 198.5812 15.69019523265882
SALSAT
1 46495U 20068K   25163.90155972  .00005944  00000-0  25724-3 0  9994
2 46495  97.8603 142.0833 0012397 143.6859 216.5220 15.22778414259030
CubeSX-Sirius-HSE
1 47951U 21022V   25157.62701764  .07883385  25648-5  89537-3 0  9993
2 47951  97.4004  72.1904 0010275 223.9924 136.0557 16.36879307233400
CubeSX-HSE
1 47952U 21022W   25157.69972699  .06655353  25454-5  93288-3 0  9992
2 47952  97.3980  72.5414 0010307 219.3637 140.6911 16.34906352233436
GRBAlpha
1 47959U 21022AD  25160.45426454  .07979523  25524-5  90936-3 0  9994
2 47959  97.3889  75.6219 0010935 224.3674 135.6748 16.36820468232696
TUBIN
1 48900U 21059X   25163.80152977  .00044018  00000-0  52766-3 0  9990
2 48900  97.6747 333.2895 0003585 203.6003 156.5089 15.60810635220543
LEDSAT
1 49069U 21073D   25163.76829998  .00068744  00000-0  80891-3 0  9994
2 49069  97.3893 245.4389 0009191  74.1671 286.0598 15.61149315211930
CUTE
1 49263U 21088D   25162.16955597  .00014302  00000-0  28543-3 0  9991
2 49263  97.4534 238.4709 0007464 226.8323 133.2304 15.46929039204671
TeikyoSat 4
1 49396U 21102B   25163.53780021  .00001577  00000-0  10726-3 0  9999
2 49396  97.4096 201.8597 0013988 119.9169 240.3451 15.07651274196996
Z-Sat
1 49399U 21102E   25163.85632930  .00004298  00000-0  23628-3 0  9990
2 49399  97.3790 205.2822 0019853  93.1969 267.1535 15.14436064197476
KOSEN 1
1 49402U 21102H   25163.69843667  .00005685  00000-0  26350-3 0  9994
2 49402  97.3695 208.5676 0017430  71.3356 288.9770 15.20328729197764
HO-113
1 50466U 21131B   25163.88592212  .00000453  00000-0  15516-3 0  9996
2 50466  98.5104 253.2224 0005340 120.1296 240.0423 14.40818195181920
Foresail-1
1 52766U 22057AL  25163.35493133  .00528098  12699-3  95552-3 0  9991
2 52766  97.6049 315.8433 0009496 249.9271 110.0985 16.01471973170340
SNUGLITE 2
1 52899U 22065F   25163.36221866  .00000919  00000-0  18750-3 0  9992
2 52899  98.1691 305.3083 0008936 103.5867 256.6331 14.63219697156890
UmKA 1 (RS40S)
1 57172U 23091G   25163.84240045  .00005026  00000-0  26925-3 0  9991
2 57172  97.5574 219.2071 0013277 328.7045  31.3396 15.15389495107971
CubeBel-2 (EU11S)
1 57175U 23091K   25163.86366875  .00008775  00000-0  41725-3 0  9995
2 57175  97.5573 220.3944 0011071 337.8569  22.2185 15.19380747108057
VERONIKA
1 58261U 23174F   25163.83417757  .00150374  00000-0  11706-2 0  9995
2 58261  97.4118 250.2046 0000817  44.8620 315.2708 15.71273731 89193
ENSO
1 58470U 23185J   25163.85285043  .00051836  00000-0  73761-3 0  9995
2 58470  97.3732 239.0765 0007264  81.1638 279.0439 15.56175669 85542
EIRSAT-1
1 58472U 23185L   25163.83610468  .00104291  00000-0  92982-3 0  9998
2 58472  97.3686 241.0178 0004265  95.4513 264.7235 15.68108805 85671
SONATE-2
1 59112U 24043Q   25163.81758688  .00015570  00000-0  44711-3 0  9997
2 59112  97.5149 295.0598 0012301 103.5627 256.6988 15.35859689 70835
MO-122
1 60209U 24125G   25163.04970697  .00013530  00000-0  38331-3 0  9993
2 60209  97.2783  14.6406 0020244 126.3602 233.9515 15.36175939 52338
GRBBeta
1 60237U 24128C   25163.46427828  .00004020  00000-0  30695-3 0  9995
2 60237  61.9926  69.5021 0052218  58.2031 302.4130 15.02655166 50637
Curium One
1 60242U 24128H   25163.42963493  .00007105  00000-0  49584-3 0  9994
2 60242  61.9826  67.8745 0052191  54.3146 306.2787 15.05146244 50668
ROBUSTA-3A
1 60243U 24128J   25163.43318750  .00007060  00000-0  49970-3 0  9995
2 60243  61.9896  68.6997 0050982  51.9727 308.5950 15.04677916 50658
CatSat
1 60246U 24125J   25163.56860549  .00009511  00000-0  31625-3 0  9998
2 60246  97.2578  14.3342 0044160  84.2008 276.4265 15.30420444 50444
HYPERVIEW-1G (RS66S)
1 61772U 24199AP  25163.86917606  .00018720  00000-0  54095-3 0  9992
2 61772  97.3526  32.7207 0013954 173.1950 186.9486 15.35596757 77465
AO-123
1 61781U 24199AY  25163.85355152  .00007181  00000-0  26147-3 0  9999
2 61781  97.3540  31.5580 0015771 179.7813 180.3437 15.28401032 77389
ZIMSAT 2
1 61783U 24199BA  25163.91029593  .00034884  00000-0  84641-3 0  9998
2 61783  97.3504  33.3998 0014060 169.4153 190.7392 15.40859206 80661
HADES-R (SO-124)
1 62690U 25009CK  25162.70389282  .00024345  00000-0  85820-3 0  9998
2 62690  97.4101 243.5002 0004096 104.2702 255.8993 15.29260670 22472
HYDRA-T
1 62692U 25009CM  25162.75442860  .00023865  00000-0  83478-3 0  9990
2 62692  97.4104 243.5850 0003829 100.9661 259.2010 15.29518940 22483
JINJUSat 1B
1 63210U 25052A   25163.42497722  .00009543  00000-0  43704-3 0  9992
2 63210  97.4419  57.5124 0003086 339.2428  20.8682 15.20698530 13683
NUSHSAT 1
1 63211U 25052B   25163.68264716  .00010633  00000-0  48317-3 0  9993
2 63211  97.4407  57.7685 0003232 345.5117  14.6025 15.20935346 13729
TEVEL2-4
1 63213U 25052D   25163.49944250  .00010477  00000-0  48034-3 0  9994
2 63213  97.4326  57.4599 0003171  12.5505 347.5809 15.20632803 13692
TEVEL2-5
1 63214U 25052E   25163.69747874  .00010351  00000-0  47482-3 0  9997
2 63214  97.4323  57.6540 0003149  11.9731 348.1578 15.20618369 13722
TEVEL2-6
1 63215U 25052F   25163.43647024  .00010518  00000-0  48307-3 0  9998
2 63215  97.4329  57.3929 0003268  13.2336 346.8985 15.20572160 13685
TEVEL2-1
1 63217U 25052H   25162.92141706  .00008734  00000-0  40440-3 0  9996
2 63217  97.4302  56.8305 0003924  24.1850 335.9569 15.20341447 13602
TEVEL2-2
1 63218U 25052J   25162.65845256  .00008100  00000-0  37535-3 0  9996
2 63218  97.4302  56.5714 0004040  25.3576 334.7857 15.20336128 13564
TEVEL2-3
1 63219U 25052K   25162.92184737  .00008764  00000-0  40585-3 0  9992
2 63219  97.4305  56.8306 0003995  24.6557 335.4869 15.20336314 13600
TEVEL2-8
1 63237U 25052AD  25163.45024353  .00010575  00000-0  50570-3 0  9996
2 63237  97.4365  57.2681 0008558  18.8549 341.3001 15.19145677 13672
TEVEL2-9
1 63238U 25052AE  25163.65030889  .00010384  00000-0  49743-3 0  9998
2 63238  97.4367  57.4612 0008600  17.8850 342.2686 15.19090309 13707
TEVEL2-7
1 63239U 25052AF  25163.12535087  .00008246  00000-0  39634-3 0  9993
2 63239  97.4371  56.9389 0008706  19.7891 340.3680 15.19042169 13626
HYDRA-W
1 63490U 25052BL  25163.69876915  .00024490  00000-0  10290-2 0  9997
2 63490  97.4317  57.7943 0011826  13.4862 346.6689 15.23360978 13732
HADES-ICM (SO-125)
1 63492U 25052BN  25163.64889165  .00024003  00000-0  10215-2 0  9992
2 63492  97.4316  57.7140 0012301  16.3275 343.8356 15.22927695 13724
